Location: Maiden_LMO
(35.5760°N, 81.2120°W)
Time: 23:37:37
(UTC-04:00)

ADEOS II - Visible Passes

Search period start: 24 June 2017 00:00
Search period end: 04 July 2017 00:00
Orbit: 800 x 801 km, 98.4° (Epoch: 24 June)

Date Brightness Start Highest point End Pass type
(mag) Time Alt. Az. Time Alt. Az. Time Alt. Az.
24 Jun 2.7 04:48:51 10° NNE 04:54:00 54° E 04:59:08 10° S visible
25 Jun 3.7 04:22:56 10° NE 04:27:30 29° E 04:32:02 10° SSE visible
26 Jun 4.5 03:57:40 10° NE 04:00:54 16° E 04:04:06 10° SE visible
26 Jun 2.4 05:35:46 10° N 05:40:52 52° WNW 05:45:57 10° SSW visible
27 Jun 2.1 05:09:15 10° NNE 05:14:32 87° E 05:19:48 10° SSW visible
28 Jun 3.0 04:43:01 10° NNE 04:48:06 47° E 04:53:09 10° S visible
29 Jun 3.9 04:17:13 10° NE 04:21:35 26° E 04:25:56 10° SSE visible
30 Jun 4.6 03:52:13 10° ENE 03:54:58 14° E 03:57:41 10° ESE visible
30 Jun 2.3 05:29:50 10° N 05:35:01 59° WNW 05:40:09 10° SSW visible
01 Jul 2.2 05:03:23 10° NNE 05:08:39 77° ESE 05:13:54 10° S visible
02 Jul 3.2 04:37:13 10° NNE 04:42:12 42° E 04:47:09 10° S visible
03 Jul 4.1 04:11:31 10° NE 04:15:40 23° E 04:19:47 10° SSE visible
